This is the latest recevied weather packets stored in our database for station/object WX4HP-13. If no packets are shown the sender has not sent any weather packets the latest 10 day(s).
| Time | Temp. | Humidity | Pressure | Rain* | Wind** | Luminosity | Snow |
|---|---|---|---|---|---|---|---|
| 1777438195 | 16.67° C | 97% | 1015.6 hPa | 2.54 mm | - | - | - |
| 1777437896 | 16.67° C | 97% | 1015.4 hPa | 3.05 mm | - | - | - |
| 1777437596 | 16.67° C | 97% | 1015.1 hPa | 2.54 mm | - | - | - |
| 1777436997 | 16.67° C | 96% | 1014.9 hPa | 2.54 mm | - | - | - |
| 1777436096 | 16.67° C | 96% | 1015.1 hPa | 2.29 mm | - | - | - |
| 1777435801 | 16.67° C | 96% | 1015.2 hPa | 1.78 mm | - | - | - |
| 1777434895 | 16.67° C | 96% | 1016 hPa | 1.02 mm | - | - | - |
| 1777434595 | 16.67° C | 96% | 1015.9 hPa | 0.51 mm | - | - | - |
| 1777434295 | 16.67° C | 96% | 1015.8 hPa | 0.25 mm | - | - | - |
| 1777433695 | 16.67° C | 96% | 1016.4 hPa | 0.25 mm | - | - | - |
| 1777433095 | 16.67° C | 96% | 1016.2 hPa | 0 mm | - | - | - |
| 1777432795 | 16.67° C | 96% | 1016.2 hPa | 0 mm | - | - | - |
| 1777432495 | 16.67° C | 96% | 1015.8 hPa | 0 mm | - | - | - |
| 1777432195 | 16.67° C | 96% | 1015.4 hPa | 0 mm | - | - | - |
| 1777431896 | 16.67° C | 96% | 1015.4 hPa | 0 mm | - | - | - |
| 1777431295 | 16.67° C | 96% | 1015.5 hPa | 0 mm | - | - | - |
| 1777430996 | 16.11° C | 96% | 1015.6 hPa | 0 mm | - | - | - |
| 1777430396 | 16.11° C | 95% | 1015.7 hPa | 0 mm | - | - | - |
| 1777430129 | 16.11° C | 95% | 1015.8 hPa | 0 mm | - | - | - |
| 1777430095 | 16.11° C | 95% | 1015.8 hPa | 0 mm | - | - | - |
| 1777429501 | 16.11° C | 94% | 1016.2 hPa | 0.25 mm | - | - | - |
| 1777429195 | 16.11° C | 94% | 1016.4 hPa | 0.76 mm | - | - | - |
| 1777428894 | 16.11° C | 93% | 1016.7 hPa | 1.02 mm | - | - | - |
| 1777428297 | 16.11° C | 92% | 1016.8 hPa | 2.03 mm | - | - | - |
| 1777427995 | 16.11° C | 91% | 1016.8 hPa | 3.81 mm | - | - | - |
* Rain latest hour (hover to see other rain measurements)
** Current wind speed in m/s (hover to see current wind gust speed)